Date_and_time,latitude,longitude,wind_speed,RelWindDirFrom,WindDirFrom,air_pressure,air_temperature,relative_humidity,Temp,platform_speed_wrt_ground,air_pressure_at_mean_sea_level,platform_orientation
2019-03-06 00:00,50.6304416666667,-96.9807683333333,3.0,5.1,157,991.37,-13.6,76,0.52,0.0,1020.57,68.5
2019-03-06 00:00,50.6304416666667,-96.9807683333333,2.8,2.8,174,991.39,-14.1,79,0.52,0.0,1020.60,270.0
2019-03-06 00:10,50.6304416666667,-96.98077,1.9,2.9,180,991.41,-14.0,78,0.52,0.0,1020.62,270.0
2019-03-06 00:20,50.6304416666667,-96.9807716666667,1.5,2.4,178,991.43,-13.2,73,0.51,0.0,1020.60,270.0
2019-03-06 00:30,50.6304416666667,-96.98077,1.8,2.6,242,991.38,-12.6,70,0.52,0.0,1020.52,270.0
2019-03-06 00:40,50.6304433333333,-96.98077,1.5,2.2,255,991.33,-12.1,69,0.52,0.0,1020.47,270.0
2019-03-06 00:50,50.6304416666667,-96.9807683333333,2.4,3.7,242,991.39,-11.5,64,0.52,0.0,1020.53,270.0
2019-03-06 01:00,50.630455,-96.9807883333333,3.4,4.4,249,991.46,-11.2,59,0.52,0.0,1020.63,302.3
2019-03-06 01:10,50.6304533333333,-96.9807816666667,5.0,8.1,245,991.52,-11.0,56,0.52,0.0,1020.72,302.3
2019-03-06 01:20,50.6304533333333,-96.9807816666667,5.0,6.9,235,991.49,-10.9,55,0.53,0.0,1020.69,302.3
2019-03-06 01:30,50.63045,-96.9807816666667,5.2,7.1,228,991.51,-11.3,57,0.53,0.0,1020.79,302.3
2019-03-06 01:40,50.6304366666667,-96.9807633333333,6.0,8.1,237,991.49,-11.4,57,0.53,0.0,1020.82,302.3
2019-03-06 01:50,50.6304366666667,-96.9807716666667,5.5,7.6,237,991.44,-11.5,57,0.53,0.0,1020.80,302.3
2019-03-06 02:00,50.6304583333333,-96.9807683333333,4.7,6.5,239,991.47,-11.5,57,0.53,0.0,1020.82,360.0
2019-03-06 02:10,50.6304533333333,-96.9807633333333,5.1,6.9,243,991.47,-11.6,57,0.54,0.0,1020.79,360.0
2019-03-06 02:20,50.6304516666667,-96.9807683333333,5.1,7.4,241,991.45,-11.6,58,0.54,0.0,1020.73,360.0
2019-03-06 02:30,50.63045,-96.9807666666667,4.1,5.6,240,991.40,-11.7,58,0.54,0.0,1020.65,360.0
2019-03-06 02:40,50.6304483333333,-96.9807666666667,3.1,4.3,239,991.33,-11.6,58,0.54,0.0,1020.54,360.0
2019-03-06 02:50,50.6304466666667,-96.9807666666667,3.1,4.5,237,991.29,-11.7,59,0.54,0.0,1020.49,360.0
2019-03-06 03:00,50.6304466666667,-96.9807683333333,3.9,5.0,233,991.26,-11.8,59,0.54,0.0,1020.45,360.0
2019-03-06 03:10,50.6304466666667,-96.98077,3.8,4.8,239,991.30,-11.8,59,0.54,0.0,1020.49,360.0
2019-03-06 03:20,50.6304333333333,-96.9807733333333,3.5,4.4,231,991.29,-11.8,60,0.54,0.0,1020.49,360.0
2019-03-06 03:30,50.6304333333333,-96.98077,3.9,5.1,241,991.27,-11.7,60,0.54,0.0,1020.49,360.0
2019-03-06 03:40,50.6304366666667,-96.980765,4.1,5.6,244,991.24,-11.7,60,0.54,0.0,1020.46,360.0
2019-03-06 03:50,50.6304366666667,-96.9807666666667,4.3,6.6,250,991.31,-11.5,60,0.54,0.0,1020.52,360.0
2019-03-06 04:00,50.6304416666667,-96.9807933333333,4.4,6.1,269,991.33,-11.4,60,0.54,0.0,1020.54,194.5
2019-03-06 04:10,50.6304433333333,-96.980785,4.4,7.5,273,991.39,-11.4,60,0.54,0.0,1020.60,194.5
2019-03-06 04:20,50.630445,-96.9807816666667,4.4,6.0,271,991.41,-11.4,60,0.54,0.0,1020.61,194.5
2019-03-06 04:30,50.630445,-96.9807816666667,5.1,8.4,281,991.49,-11.3,60,0.53,0.0,1020.70,194.5
2019-03-06 04:40,50.6304783333333,-96.980805,4.7,7.8,291,991.61,-11.3,60,0.53,0.0,1020.82,194.5
2019-03-06 04:50,50.6304533333333,-96.9807733333333,4.5,6.9,299,991.82,-11.3,60,0.53,0.0,1021.04,194.5
2019-03-06 05:00,50.6304433333333,-96.9807783333333,5.6,9.9,311,991.89,-11.2,61,0.53,0.0,1021.11,211.1
2019-03-06 05:10,50.630445,-96.98078,6.2,10.1,335,991.95,-11.2,62,0.52,0.0,1021.17,211.1
2019-03-06 05:20,50.6304433333333,-96.9807783333333,6.2,8.1,345,992.00,-11.3,66,0.52,0.0,1021.23,211.1
2019-03-06 05:30,50.6304116666667,-96.9807783333333,6.5,7.9,347,992.11,-11.4,72,0.52,0.0,1021.35,211.1
2019-03-06 05:40,50.6304516666667,-96.98077,7.2,9.8,342,992.25,-11.5,74,0.53,0.0,1021.48,211.1
2019-03-06 05:50,50.6304466666667,-96.9807716666667,7.8,10.7,343,992.30,-11.6,74,0.53,0.0,1021.54,211.1
2019-03-06 06:00,50.6304416666667,-96.98077,6.7,8.6,346,992.37,-11.6,75,0.54,0.0,1021.60,360.0
2019-03-06 06:10,50.6304416666667,-96.9807716666667,6.9,9.1,351,992.47,-11.7,75,0.54,0.0,1021.71,360.0
2019-03-06 06:20,50.6304433333333,-96.9807716666667,7.2,10.4,350,992.60,-11.8,74,0.53,0.0,1021.85,360.0
2019-03-06 06:30,50.6304416666667,-96.9807733333333,7.6,9.8,354,992.69,-12.0,74,0.53,0.0,1021.95,360.0
2019-03-06 06:40,50.6304416666667,-96.9807733333333,6.0,7.4,338,992.81,-12.1,74,0.53,0.0,1022.08,360.0
2019-03-06 06:50,50.6304183333333,-96.9808,5.1,7.5,320,992.90,-12.1,74,0.53,0.0,1022.17,360.0
2019-03-06 07:00,50.6304316666667,-96.9807883333333,6.1,8.8,324,993.03,-12.0,75,0.54,0.0,1022.29,138.7
2019-03-06 07:10,50.6304333333333,-96.9807766666667,7.8,12.2,327,993.06,-12.1,73,0.54,0.0,1022.34,138.7
2019-03-06 07:20,50.6304366666667,-96.9807733333333,7.4,10.5,331,993.21,-12.2,71,0.54,0.0,1022.50,138.7
2019-03-06 07:30,50.6304383333333,-96.9807783333333,6.8,10.2,323,993.34,-12.2,71,0.54,0.0,1022.65,138.7
2019-03-06 07:40,50.6304366666667,-96.9807783333333,6.3,9.7,319,993.42,-12.3,71,0.53,0.0,1022.74,138.7
2019-03-06 07:50,50.6304383333333,-96.9807766666667,5.8,8.6,308,993.44,-12.3,71,0.54,0.0,1022.76,138.7
2019-03-06 08:00,50.63044,-96.9807783333333,5.9,8.7,308,993.44,-12.3,71,0.54,0.0,1022.77,90.0
2019-03-06 08:10,50.63044,-96.9807783333333,6.2,9.2,306,993.44,-12.4,71,0.54,0.0,1022.78,90.0
2019-03-06 08:20,50.63044,-96.9807783333333,6.3,9.5,306,993.46,-12.4,70,0.54,0.0,1022.81,90.0
2019-03-06 08:30,50.6304583333333,-96.980755,6.3,9.0,304,993.43,-12.4,70,0.55,0.0,1022.78,90.0
2019-03-06 08:40,50.6304533333333,-96.9807633333333,7.6,10.6,309,993.38,-12.5,69,0.54,0.0,1022.73,90.0
2019-03-06 08:50,50.6304533333333,-96.9807666666667,6.0,9.6,310,993.46,-12.5,69,0.54,0.0,1022.82,90.0
2019-03-06 09:00,50.6304516666667,-96.9807733333333,6.4,11.9,310,993.46,-12.6,68,0.54,0.0,1022.82,360.0
2019-03-06 09:10,50.6304516666667,-96.9807766666667,6.9,10.7,315,993.47,-12.6,67,0.55,0.0,1022.85,360.0
2019-03-06 09:20,50.6304483333333,-96.9807733333333,7.3,11.7,315,993.49,-12.7,66,0.55,0.0,1022.87,360.0
2019-03-06 09:30,50.6304466666667,-96.98077,7.2,11.6,318,993.55,-12.8,66,0.55,0.0,1022.94,360.0
2019-03-06 09:40,50.6304416666667,-96.9807683333333,7.2,11.0,326,993.51,-12.8,67,0.55,0.0,1022.90,360.0
2019-03-06 09:50,50.630445,-96.980765,8.7,12.4,331,993.42,-12.8,67,0.54,0.0,1022.81,360.0
2019-03-06 10:00,50.6304416666667,-96.9807833333333,9.6,12.5,335,993.40,-12.8,66,0.54,0.0,1022.79,41.3
2019-03-06 10:10,50.63044,-96.9807783333333,8.3,13.2,324,993.62,-12.9,64,0.55,0.0,1023.02,41.3
2019-03-06 10:20,50.6304366666667,-96.9807766666667,6.5,10.4,310,993.76,-12.9,64,0.55,0.0,1023.17,41.3
2019-03-06 10:30,50.630435,-96.9807733333333,5.4,8.1,301,993.91,-13.0,64,0.55,0.0,1023.33,41.3
2019-03-06 10:40,50.630435,-96.9807733333333,5.7,8.8,303,993.91,-13.0,64,0.55,0.0,1023.34,41.3
2019-03-06 10:50,50.6304366666667,-96.9807716666667,4.9,7.5,295,993.99,-13.0,65,0.55,0.0,1023.43,41.3
2019-03-06 11:00,50.6304366666667,-96.9807716666667,4.6,6.5,295,994.03,-13.1,65,0.54,0.0,1023.47,125.3
2019-03-06 11:10,50.63042,-96.98076,5.0,6.9,307,994.02,-13.1,66,0.55,0.0,1023.47,125.3
2019-03-06 11:20,50.63044,-96.9807666666667,5.8,7.9,303,994.11,-13.2,65,0.55,0.0,1023.56,125.3
2019-03-06 11:30,50.630445,-96.9807733333333,5.5,8.0,300,994.27,-13.2,66,0.55,0.0,1023.73,125.3
2019-03-06 11:40,50.6304433333333,-96.9807716666667,5.1,8.7,290,994.45,-13.2,67,0.54,0.0,1023.93,125.3
2019-03-06 11:50,50.63044,-96.9807716666667,5.5,9.5,293,994.48,-13.2,68,0.54,0.0,1023.96,125.3
2019-03-06 12:00,50.63044,-96.9807683333333,4.2,6.0,300,994.56,-13.3,70,0.55,0.0,1024.04,165.5
2019-03-06 12:10,50.63044,-96.9807716666667,4.9,7.2,304,994.49,-13.3,71,0.55,0.0,1023.97,165.5
2019-03-06 12:20,50.6304383333333,-96.9807733333333,5.5,8.1,304,994.51,-13.3,72,0.56,0.0,1024.00,165.5
2019-03-06 12:30,50.63044,-96.980775,6.7,10.9,309,994.55,-13.4,72,0.56,0.0,1024.04,165.5
2019-03-06 12:40,50.6304383333333,-96.9807733333333,5.3,9.4,316,994.60,-13.4,74,0.56,0.0,1024.10,165.5
2019-03-06 12:50,50.6304366666667,-96.9807733333333,6.1,9.3,308,994.61,-13.5,74,0.55,0.0,1024.12,165.5
2019-03-06 13:00,50.6304366666667,-96.980765,7.7,11.8,302,994.67,-13.6,73,0.55,0.0,1024.19,111.5
2019-03-06 13:10,50.63045,-96.98077,6.5,11.2,300,994.86,-13.7,71,0.55,0.0,1024.39,111.5
2019-03-06 13:20,50.6304483333333,-96.9807683333333,8.8,14.6,301,994.87,-13.7,68,0.55,0.0,1024.40,111.5
2019-03-06 13:30,50.630445,-96.9807666666667,8.0,13.3,295,994.95,-13.9,68,0.55,0.0,1024.49,111.5
2019-03-06 13:40,50.6304466666667,-96.9807666666667,8.5,13.9,296,994.90,-14.0,66,0.53,0.0,1024.46,111.5
2019-03-06 13:50,50.6304166666667,-96.9807683333333,8.6,13.4,303,994.92,-14.1,65,0.53,0.0,1024.48,111.5
2019-03-06 14:00,50.6304466666667,-96.9807766666667,7.4,12.3,303,995.07,-14.1,64,0.53,0.0,1024.64,360.0
2019-03-06 14:10,50.6304533333333,-96.9807716666667,7.8,12.6,302,995.21,-14.1,62,0.53,0.0,1024.78,360.0
2019-03-06 14:20,50.63045,-96.9807666666667,9.3,13.3,302,995.33,-14.2,60,0.53,0.0,1024.91,360.0
2019-03-06 14:30,50.63045,-96.9807666666667,10.6,16.7,302,995.49,-14.2,60,0.53,0.0,1025.09,360.0
2019-03-06 14:40,50.6304483333333,-96.9807666666667,10.5,15.2,304,995.59,-14.2,59,0.53,0.0,1025.20,360.0
2019-03-06 14:50,50.6304483333333,-96.9807666666667,10.6,17.1,302,995.78,-14.1,59,0.52,0.0,1025.39,360.0
2019-03-06 15:00,50.6304466666667,-96.9807683333333,9.6,14.3,306,995.97,-14.0,59,0.53,0.0,1025.58,38.0
2019-03-06 15:10,50.6304466666667,-96.9807683333333,11.7,16.7,311,996.01,-13.9,59,0.53,0.0,1025.63,38.0
2019-03-06 15:20,50.630425,-96.9807666666667,11.5,16.5,294,996.20,-13.9,59,0.53,0.0,1025.82,38.0
2019-03-06 15:30,50.630435,-96.9807766666667,9.7,14.7,312,996.44,-13.8,62,0.53,0.0,1026.07,38.0
2019-03-06 15:40,50.630435,-96.980775,11.6,18.5,317,996.52,-14.0,67,0.53,0.0,1026.17,38.0
2019-03-06 15:50,50.6304366666667,-96.9807716666667,11.8,17.1,309,996.66,-14.2,64,0.53,0.0,1026.33,38.0
2019-03-06 16:00,50.6304366666667,-96.9807733333333,13.8,18.7,313,996.74,-14.4,61,0.53,0.0,1026.42,270.0
2019-03-06 16:10,50.630435,-96.9807733333333,12.4,18.3,316,996.90,-14.2,58,0.54,0.0,1026.58,270.0
2019-03-06 16:20,50.6304483333333,-96.9807716666667,12.6,17.9,316,997.04,-14.3,57,0.55,0.0,1026.74,270.0
2019-03-06 16:30,50.6304483333333,-96.980775,11.5,16.0,312,997.24,-14.4,56,0.54,0.0,1026.94,270.0
2019-03-06 16:40,50.6304466666667,-96.98077,11.2,17.9,316,997.42,-14.4,57,0.54,0.0,1027.12,270.0
2019-03-06 16:50,50.6304433333333,-96.9807733333333,11.7,18.5,335,997.65,-14.4,56,0.55,0.0,1027.35,270.0
2019-03-06 17:00,50.6304433333333,-96.9807716666667,13.9,20.3,334,997.67,-14.4,56,0.55,0.0,1027.37,360.0
2019-03-06 17:10,50.6304433333333,-96.9807716666667,15.6,21.1,345,997.81,-14.5,56,0.55,0.0,1027.52,360.0
2019-03-06 17:20,50.6304433333333,-96.9807716666667,11.8,17.7,333,998.04,-14.2,56,0.55,0.0,1027.73,360.0
2019-03-06 17:30,50.6304433333333,-96.9807733333333,10.5,15.8,340,998.19,-14.1,58,0.55,0.0,1027.89,360.0
2019-03-06 17:40,50.6304433333333,-96.9807716666667,10.3,15.6,310,998.13,-14.0,57,0.55,0.0,1027.84,360.0
2019-03-06 17:50,50.6304416666667,-96.9807716666667,9.6,15.7,314,998.17,-13.8,58,0.55,0.0,1027.88,360.0
2019-03-06 18:00,50.6304416666667,-96.9807716666667,10.9,16.3,300,998.13,-13.8,57,0.55,0.0,1027.82,192.6
2019-03-06 18:10,50.6304416666667,-96.98077,11.0,15.8,315,998.23,-13.6,57,0.55,0.0,1027.92,192.6
2019-03-06 18:20,50.6304416666667,-96.98077,11.7,17.1,321,998.27,-13.5,58,0.54,0.0,1027.96,192.6
2019-03-06 18:30,50.6304066666667,-96.9807316666667,11.9,19.9,313,998.20,-13.4,59,0.54,0.0,1027.89,192.6
2019-03-06 18:40,50.6304233333333,-96.98076,9.9,18.2,316,998.34,-13.2,59,0.54,0.0,1028.01,192.6
2019-03-06 18:50,50.6304266666667,-96.9807633333333,11.7,18.4,324,998.40,-13.1,58,0.55,0.0,1028.07,192.6
2019-03-06 19:00,50.6304366666667,-96.9807516666667,11.5,17.2,311,998.40,-13.1,57,0.55,0.0,1028.07,90.0
2019-03-06 19:10,50.6304383333333,-96.98077,10.5,14.8,305,998.40,-13.0,56,0.54,0.0,1028.06,90.0
2019-03-06 19:20,50.6304416666667,-96.9807666666667,9.5,14.8,304,998.25,-12.7,56,0.54,0.0,1027.88,90.0
2019-03-06 19:30,50.630445,-96.980775,9.1,15.5,303,998.15,-12.7,57,0.54,0.0,1027.77,90.0
2019-03-06 19:40,50.6304183333333,-96.9807616666667,8.7,14.8,307,998.11,-12.6,57,0.55,0.0,1027.70,90.0
2019-03-06 19:50,50.6304416666667,-96.9807716666667,8.4,13.4,316,998.11,-12.5,57,0.55,0.0,1027.70,90.0
2019-03-06 20:00,50.6304516666667,-96.9807733333333,8.9,13.9,303,998.18,-12.5,57,0.54,0.0,1027.76,360.0
2019-03-06 20:10,50.6304533333333,-96.9807683333333,8.2,11.6,313,998.20,-12.3,57,0.55,0.0,1027.77,360.0
2019-03-06 20:20,50.6304333333333,-96.9807933333333,8.4,13.8,308,998.34,-12.3,57,0.55,0.0,1027.90,360.0
2019-03-06 20:30,50.6304383333333,-96.9807766666667,9.5,14.5,318,998.32,-12.0,57,0.54,0.0,1027.86,360.0
2019-03-06 20:40,50.630455,-96.98077,9.1,13.4,311,998.31,-11.9,57,0.54,0.0,1027.84,360.0
2019-03-06 20:50,50.630435,-96.9807833333333,9.2,13.7,319,998.29,-11.9,57,0.54,0.0,1027.82,360.0
2019-03-06 21:00,50.6304383333333,-96.980775,7.9,12.1,310,998.47,-11.5,56,0.55,0.0,1027.97,90.0
2019-03-06 21:10,50.6304316666667,-96.9807333333333,8.7,12.9,308,998.52,-11.4,55,0.55,0.0,1028.00,90.0
2019-03-06 21:20,50.63044,-96.9807633333333,9.1,12.9,309,998.41,-11.4,56,0.54,0.0,1027.88,90.0
2019-03-06 21:30,50.63044,-96.980765,7.8,11.7,312,998.50,-11.2,55,0.54,0.0,1027.96,90.0
2019-03-06 21:40,50.63044,-96.980765,8.8,12.8,297,998.48,-11.1,55,0.54,0.0,1027.93,90.0
2019-03-06 21:50,50.6304383333333,-96.9807633333333,8.6,12.3,309,998.65,-10.9,54,0.54,0.0,1028.09,90.0
2019-03-06 22:00,50.63044,-96.9807633333333,7.2,11.6,308,998.75,-10.6,54,0.54,0.0,1028.17,305.3
2019-03-06 22:10,50.63044,-96.9807666666667,6.5,10.5,296,998.87,-10.2,53,0.54,0.0,1028.27,305.3
2019-03-06 22:20,50.63044,-96.9807666666667,7.6,12.5,292,998.85,-10.5,53,0.54,0.0,1028.25,305.3
2019-03-06 22:30,50.6304416666667,-96.9807683333333,7.4,11.4,303,998.75,-10.6,53,0.54,0.0,1028.15,305.3
2019-03-06 22:40,50.6304416666667,-96.9807683333333,6.8,10.1,298,998.76,-10.7,53,0.53,0.0,1028.16,305.3
2019-03-06 22:50,50.6304416666667,-96.98077,8.0,12.7,298,998.87,-10.7,53,0.54,0.0,1028.25,305.3
2019-03-06 23:00,50.63044,-96.98077,6.4,9.4,305,999.06,-10.7,53,0.55,0.0,1028.44,165.5
2019-03-06 23:10,50.6304366666667,-96.98077,6.4,9.7,295,999.06,-10.7,53,0.55,0.0,1028.45,165.5
2019-03-06 23:20,50.63044,-96.9807616666667,5.5,8.7,305,999.03,-10.7,53,0.55,0.0,1028.39,165.5
2019-03-06 23:30,50.6304416666667,-96.980765,5.7,8.4,314,999.12,-10.7,53,0.56,0.0,1028.49,165.5
2019-03-06 23:40,50.63044,-96.980765,4.8,6.8,303,999.31,-10.8,54,0.56,0.0,1028.68,165.5
